Showing default

BB4, 57757

Orbit data source: Space-Track

BB4, 57757 is a payload satellite owned by SDA (US) in LEO that was launched on Sat, 02 Sep 2023 UTC via an FALCON 9 launch vehicle from the Air Force Western Test Range (AFWTR). Payload-class satellites include a variety of spacecraft equipped with specific instruments for various scientific and technological missions. These include communications satellites like Starlink; space stations such as the ISS; scientific satellites like the Hubble; Earth observation satellites from companies like Planet Labs, Umbra, and HawkEye 360; GPS; miniature CubeSats for education and research; and military/defense satellites.

Loading next visibility...
Identifier
57757, 2023-133B
Orbit
LEO
Country
Flag of USUS
Related business
Manufacturer
SPX/LEIDOS
Mission
Operational Defense Early Warn
Bus & Motor
STARSHIELD?, Unknown motor
Mass
~800 kg wet, ~800 kg dry
Launch date (UTC)
2023-09-02 (3 years ago)
Launch vehicle
FALCON 9
Launch site
Air Force Western Test Range (AFWTR)
Object type
Payload
Rocket body
Debris
Shape & HBR
Box + 1 Pan, 4.5 m
Radar Cross Section
12.397 m², Large (>1 m²)

Expand to show TLE details & history
Last TLE update: 6 days ago

TLE from 6 days ago
0 BB4
1 57757U 23133B   26167.32247935  .00000421  00000-0  13389-3 0  9994
2 57757  80.9990   0.8776 0008043 340.3813  19.7062 14.38450903141348
Epoch: 2026-06-16T07:44Z
TLE epoch observation values (Epoch: 2026-06-16T07:44:22.215Z)
Latitude
-0.00005°
Longitude
-19.81114°
Altitude
761.143 km
Speed
7.477 km/s
True Right ascension
00h 03m 30s
True Declination
0° 00' 00"
Sunlit
Object was in daylight at epoch
Visualization orbit readout
Latitude
Unknown
Longitude
Unknown
Altitude
Unknown
Speed
Unknown
Apparent Right ascension
Unknown
Apparent Declination
Unknown
Sunlit
N/A
Visualization observer readout
Local Sidereal Time
00:50:57
Azimuth
Unknown
Elevation
Unknown
Doppler factor
Unknown
Orbital elements
Apogee altitude
766.511 km
Perigee altitude
755.028 km
Semi-major axis
7,138.907 km
Eccentricity
0.0008
Inclination
80.999°
RAAN
0.8776°
Arg. of periapsis
340.3813°
True anomaly
19.73731°
Mean anomaly
19.7062°
Eccentric anomaly
19.72175°
Mean motion
3.59829 °/min
Orbital period
100.05 mins
BSTAR
0.00013389
Loading maneuver chart data...
Computing Atmospheric mass density...
Loading historical data...
Loading historical data...
Loading historical data...
Loading historical data...
Loading historical data...
Loading historical data...
Loading historical data...

Documentation

Showing up to 5 results
|